This is the latest recevied weather packets stored in our database for station/object AA5QJ. If no packets are shown the sender has not sent any weather packets the latest 1 day(s).
| Time | Temp. | Humidity | Pressure | Rain* | Wind** | Luminosity | Snow |
|---|---|---|---|---|---|---|---|
| 1777996974 | 0° C | 56% | 1010.2 hPa | 0 mm | 0.89 m/s, 236° | - | - |
| 1777996674 | -2.78° C | 57% | 1010.2 hPa | 0 mm | 0.89 m/s, 46° | - | - |
| 1777996376 | 3.33° C | 57% | 1010.2 hPa | 0 mm | 0.89 m/s, 24° | - | - |
| 1777996076 | -8.89° C | 57% | 1010.2 hPa | 0 mm | 1.79 m/s, 128° | - | - |
| 1777995775 | -7.22° C | 57% | 1010.2 hPa | 0 mm | 1.79 m/s, 132° | - | - |
| 1777995475 | -5° C | 57% | 1010.2 hPa | 0 mm | 0.45 m/s, 136° | - | - |
| 1777995174 | -8.33° C | 57% | 1010.2 hPa | 0 mm | 2.24 m/s, 135° | - | - |
| 1777994876 | -9.44° C | 58% | 1010.2 hPa | 0 mm | 0.89 m/s, 180° | - | - |
| 1777994576 | -1.11° C | 58% | 1010.2 hPa | 0 mm | 0.89 m/s, 96° | - | - |
| 1777994275 | 1.11° C | 58% | 1010.2 hPa | 0 mm | 1.34 m/s, 131° | - | - |
| 1777993975 | 1.67° C | 59% | 1009.9 hPa | 0 mm | 0.45 m/s, 34° | - | - |
| 1777993675 | 2.22° C | 58% | 1009.9 hPa | 0 mm | 0 m/s | - | - |
| 1777993375 | 3.33° C | 58% | 1009.9 hPa | 0 mm | 1.79 m/s, 103° | - | - |
| 1777993075 | 4.44° C | 58% | 1009.9 hPa | 0 mm | 0.45 m/s, 86° | - | - |
| 1777992775 | 5.56° C | 59% | 1009.9 hPa | 0 mm | 0 m/s | - | - |
| 1777992474 | 4.44° C | 60% | 1009.5 hPa | 0 mm | 0 m/s | - | - |
| 1777992174 | 4.44° C | 60% | 1009.5 hPa | 0 mm | 0.45 m/s, 37° | - | - |
| 1777991874 | 4.44° C | 61% | 1009.5 hPa | 0 mm | 0 m/s | - | - |
| 1777991574 | 5° C | 61% | 1009.5 hPa | 0 mm | 0.45 m/s, 62° | - | - |
| 1777991274 | 5.56° C | 61% | 1009.5 hPa | 0 mm | 1.79 m/s, 83° | - | - |
| 1777990974 | 5.56° C | 62% | 1009.5 hPa | 0 mm | 0 m/s | - | - |
| 1777990676 | 5.56° C | 62% | 1009.5 hPa | 0 mm | 0 m/s | - | - |
| 1777990375 | 5.56° C | 62% | 1009.5 hPa | 0 mm | 0.89 m/s, 141° | - | - |
| 1777990075 | 5.56° C | 62% | 1009.5 hPa | 0 mm | 0 m/s | - | - |
| 1777989775 | 6.11° C | 63% | 1009.5 hPa | 0 mm | 0.89 m/s, 53° | - | - |
* Rain latest hour (hover to see other rain measurements)
** Current wind speed in m/s (hover to see current wind gust speed)